Location: Columbia
(38.9520°N, 92.3340°W)
Time: 22:38:00
(UTC-05:00)

Cosmos 2219 Rocket - Visible Passes

Search period start: 01 July 2015 00:00
Search period end: 11 July 2015 00:00
Orbit: 827 x 848 km, 71.0° (Epoch: 01 July)

Date Brightness Start Highest point End Pass type
(mag) Time Alt. Az. Time Alt. Az. Time Alt. Az.
01 Jul 4.2 00:34:33 10° N 00:38:38 20° NE 00:41:20 15° E visible
01 Jul 2.2 02:17:30 10° NNW 02:23:01 60° WSW 02:23:01 60° WSW visible
02 Jul 4.2 00:18:23 10° N 00:22:15 19° NE 00:24:55 15° E visible
02 Jul 2.2 02:01:11 10° NNW 02:06:36 64° W 02:06:36 64° W visible
03 Jul 4.3 00:02:13 10° N 00:05:53 18° NE 00:08:34 14° E visible
03 Jul 2.2 01:44:51 10° NNW 01:50:15 69° W 01:50:15 69° W visible
03 Jul 4.3 23:46:04 10° NNE 23:49:31 17° NE 23:52:15 13° E visible
04 Jul 2.2 01:28:32 10° NNW 01:33:57 74° W 01:33:57 74° W visible
04 Jul 4.4 23:29:57 10° NNE 23:33:08 15° NE 23:35:59 11° E visible
05 Jul 2.1 01:12:13 10° NNW 01:17:41 79° WNW 01:17:41 79° WNW visible
05 Jul 4.4 23:13:51 10° NNE 23:16:45 14° NE 23:19:46 10° E visible
06 Jul 2.1 00:55:55 10° NNW 01:01:28 85° NW 01:01:28 85° NW visible
06 Jul 4.4 22:57:47 10° NNE 23:00:22 13° NE 23:03:12 10° ENE visible
07 Jul 2.1 00:39:37 10° NNW 00:45:17 85° NE 00:45:17 85° NE visible
07 Jul 4.5 02:26:44 10° WNW 02:26:59 10° W 02:26:59 10° W visible
07 Jul 4.4 22:41:46 10° NNE 22:43:59 12° NE 22:46:28 10° ENE visible
08 Jul 2.1 00:23:19 10° NNW 00:29:02 80° ENE 00:29:09 79° E visible
08 Jul 4.4 02:09:53 10° WNW 02:10:51 12° W 02:10:51 12° W visible
08 Jul 4.5 22:25:50 10° NNE 22:27:35 12° NE 22:29:39 10° ENE visible
09 Jul 2.1 00:07:01 10° NNW 00:12:43 74° ENE 00:13:02 72° E visible
09 Jul 4.4 01:53:11 10° WNW 01:54:45 13° W 01:54:45 13° W visible
09 Jul 4.5 22:10:03 10° NNE 22:11:12 11° NE 22:12:40 10° ENE visible
09 Jul 2.2 23:50:45 10° NNW 23:56:24 68° ENE 23:56:58 64° E visible
10 Jul 4.3 01:36:35 10° WNW 01:38:41 14° W 01:38:41 14° W visible
10 Jul 2.3 23:34:27 10° NNW 23:40:06 63° ENE 23:40:56 56° ESE visible
